Volver al catálogo

DMSP 5D-2 F11 DEB

ActivoSSO
NORAD 28330·DEBRIS·🇺🇸 United States

Lanzado Nov 28, 1991 desde Vandenberg Space Force Base

Loading…

Próximos Pases (próximas 24 horas)

TLE

ActualizadoSource: Space-Track

Época: Sep 13, 2026, 12:10 UTC

1 28330U 91082AT  26256.50735474  .00003568  00000-0  11218-2 0  9999
2 28330  98.9298 338.3787 0068827 227.2835 132.2545 14.39768641153057

Sigue DMSP 5D-2 F11 DEB en tiempo real con AllMySat

Download on the App Store